Lid_Strength_Index
7 10 12 11 10 10 12 12 12 11 10 10 11 11 9 8 7 7 7 6 6 5 4 3 3 2 2 1 1 1 1 1 0 1 1 1 1 1 1 1 0 0 0 0
10 12 10 11 10 10 10 13 13 11 9 10 11 12 9 9 8 7 7 7 7 6 5 4 3 3 2 2 2 2 1 1 1 1 1 1 1 0 0 -0 1 -0 0 1
12 9 8 10 12 12 11 12 13 13 10 9 10 12 11 9 8 8 7 6 6 6 6 5 4 4 3 3 2 2 2 1 0 0 0 0 0 0 1 1 0 -0 -0 -0
10 8 9 10 12 11 14 11 11 12 13 16 11 17 12 10 10 9 8 7 7 6 5 5 5 5 4 3 1 2 1 1 0 0 1 1 2 2 1 1 0 0 -0 -0
12 10 10 11 11 10 12 10 11 11 13 13 14 16 14 11 11 10 9 8 7 6 6 6 5 4 4 2 2 2 2 1 1 0 1 1 2 1 1 1 1 0 0 -0
10 8 9 9 8 9 10 11 11 11 12 17 15 15 15 13 12 10 9 8 7 7 6 5 4 3 3 2 2 2 2 2 2 2 1 1 1 1 1 1 1 1 1 0
11 10 9 9 11 10 10 12 17 18 18 18 13 14 15 11 10 10 10 9 8 7 7 6 5 4 4 3 3 2 2 2 1 1 1 1 1 1 1 1 1 1 1 1
16 17 11 9 10 12 12 13 17 20 19 17 13 16 15 10 9 9 8 8 8 7 6 5 4 4 4 4 4 4 4 4 4 3 1 1 1 1 1 1 1 1 1 1
14 14 8 8 8 8 12 15 10 14 15 17 15 14 12 10 10 10 9 8 8 7 7 6 6 5 4 4 4 5 5 5 6 5 5 5 4 2 1 1 1 1 1 1
10 15 9 8 8 8 10 9 15 15 20 20 16 16 15 12 12 10 10 9 8 7 7 7 7 7 6 6 6 6 7 7 7 6 6 6 6 6 5 5 5 5 4 4
9 13 11 10 12 13 12 13 13 12 14 17 18 15 10 11 10 10 9 8 7 7 7 7 7 7 7 7 7 8 7 7 7 7 7 7 7 6 6 6 6 6 6 6
9 13 15 13 9 8 9 11 12 16 18 15 15 14 8 8 8 7 7 6 6 5 5 5 6 7 7 7 7 7 8 8 8 8 7 8 8 7 7 7 7 7 7 6
9 14 17 15 11 10 13 11 11 11 11 16 18 14 8 7 7 7 7 6 5 5 6 6 6 6 6 6 7 7 8 8 8 8 8 8 8 8 8 8 8 7 7 7
8 12 15 17 14 12 13 12 12 13 17 16 14 12 10 8 8 7 6 5 5 5 5 6 6 6 6 6 7 8 9 9 9 9 9 9 9 9 9 9 8 8 8 7
10 14 12 12 12 12 13 13 13 13 13 15 13 12 9 8 7 6 5 5 5 5 5 5 5 6 6 7 8 8 9 9 9 10 10 10 10 10 10 9 9 9 8 8
9 14 12 14 12 13 15 14 13 13 13 13 12 13 7 6 6 6 5 6 6 5 5 5 5 5 7 8 9 10 10 11 10 11 11 12 12 11 12 11 10 9 9 9
11 12 14 16 12 13 16 13 11 11 10 12 15 11 8 8 7 7 6 6 5 5 4 5 5 6 7 10 11 11 12 12 12 13 13 14 14 14 13 13 12 11 11 10
11 12 12 15 14 20 12 9 10 11 9 8 9 9 8 7 6 6 10 9 7 5 4 4 6 9 11 13 13 13 13 14 14 15 15 15 15 15 15 14 13 13 12 11
8 11 13 16 16 13 13 11 12 12 11 11 11 8 7 8 8 9 13 13 14 13 12 12 12 13 14 16 15 14 15 15 16 17 17 17 17 16 16 15 15 14 14 13
8 9 13 14 17 18 13 12 13 13 15 15 15 14 15 13 12 12 16 16 17 16 16 15 15 17 17 18 17 16 17 18 19 19 19 18 18 18 17 16 16 15 15 14
13 13 15 15 16 13 14 16 13 16 15 16 17 17 16 15 17 17 17 18 18 19 18 17 18 19 20 19 18 19 19 21 21 20 20 20 19 19 18 17 17 17 16 15
12 14 15 14 16 18 17 15 13 17 18 18 18 18 18 18 18 19 19 20 20 20 20 20 20 20 20 20 20 21 22 22 21 21 21 21 20 20 18 19 18 18 17 17
14 11 12 13 13 18 17 19 18 18 19 20 19 19 19 20 21 21 21 21 22 22 22 21 21 21 22 22 22 23 23 22 22 22 22 21 20 20 20 20 20 19 18 18
15 16 14 16 19 20 20 19 19 19 20 20 20 19 19 20 20 21 22 22 23 23 23 23 23 23 24 24 23 24 24 24 24 24 23 22 22 22 21 21 20 20 20 19
18 17 16 20 21 22 21 21 20 20 20 21 21 21 21 21 22 22 23 23 23 23 24 24 24 25 25 25 25 24 24 25 25 25 25 23 23 23 23 22 22 21 20 20
21 20 18 18 20 20 22 21 21 22 22 22 22 23 24 24 24 24 24 24 25 25 25 25 25 25 25 25 25 25 25 25 26 26 26 26 25 25 24 23 22 20 19 19